Weather History for KTKC - April, 2014

Change the Weather History Date:

Saturday, April 12, 2014

  Actual Average (KMML) Record (KMML)
Temperature  
Mean Temperature 54 °F -  
Max Temperature 66 °F 55 °F 84 °F (1968)
Min Temperature 43 °F 33 °F 14 °F (1950)
Degree Days  
Heating Degree Days 11    
Growing Degree Days 4 (Base 50)    
Moisture  
Dew Point 44 °F    
Average Humidity 69    
Maximum Humidity 90    
Minimum Humidity 47    
Precipitation  
Precipitation 0.02 in - - ()
Sea Level Pressure  
Sea Level Pressure 29.69 in    
Wind  
Wind Speed 10 mph (ENE)    
Max Wind Speed 17 mph    
Max Gust Speed 22 mph    
Visibility 10 miles    
Events Rain , Thunderstorm    
Averages and records for this station are not official NWS values.
T = Trace of Precipitation, MM = Missing Value Source: NWS Daily Summary

Daily Weather History Graph

Daily Weather History Graph

Search for Another Location

Airport or City:

Trip Planner

Search our weather history database for the weather conditions in past years. The results will help you decide how hot, cold, wet, or windy it might be!

Date:

Astronomy

Apr. 12, 2014 Rise Set
Actual Time 6:43 AM CDT 8:03 PM CDT
Civil Twilight 6:14 AM CDT 8:33 PM CDT
Nautical Twilight 5:37 AM CDT 9:09 PM CDT
Astronomical Twilight 4:59 AM CDT 9:47 PM CDT
Moon 5:37 PM CDT (4/12) 5:17 AM CDT (4/12)
Length of Visible Light 14h 19m
Length of Day
13h 19m
Waxing Gibbous, 93% of the Moon is Illuminated
Apr 12
Waxing Gibbous
Apr 15
Full
Apr 22
Last Quarter
Apr 29
New
May 6
First Quarter

Hourly Weather History & Observations

Time (CDT) Temp. Windchill Dew Point Humidity Pressure Visibility Wind Dir Wind Speed Gust Speed Precip Events Conditions
12:12 AM 53.1 °F - 36.3 °F 53% 29.82 in 10.0 mi SE 10.4 mph - N/A   Overcast
12:32 AM 53.4 °F - 35.4 °F 51% 29.81 in 10.0 mi SE 12.7 mph 17.3 mph N/A   Overcast
12:52 AM 53.1 °F - 34.7 °F 50% 29.79 in 10.0 mi SE 13.8 mph 19.6 mph N/A   Mostly Cloudy
1:13 AM 53.2 °F - 34.3 °F 49% 29.79 in 10.0 mi SE 15.0 mph - N/A   Overcast
1:33 AM 53.6 °F - 33.8 °F 47% 29.77 in 10.0 mi SE 15.0 mph 21.9 mph N/A   Overcast
1:52 AM 53.2 °F - 33.8 °F 48% 29.76 in 10.0 mi SE 17.3 mph - N/A   Overcast
2:13 AM 52.7 °F - 34.0 °F 49% 29.77 in 10.0 mi SSE 12.7 mph 17.3 mph N/A   Overcast
2:33 AM 52.9 °F - 34.7 °F 50% 29.76 in 10.0 mi SE 11.5 mph - N/A   Overcast
2:53 AM 52.0 °F - 36.5 °F 56% 29.75 in 10.0 mi ESE 6.9 mph - N/A Rain Rain
3:13 AM 51.8 °F - 37.6 °F 58% 29.74 in 10.0 mi SE 8.1 mph - N/A   Light Drizzle
3:33 AM 51.1 °F - 40.3 °F 67% 29.72 in 10.0 mi SE 9.2 mph - N/A   Light Drizzle
3:52 AM 49.5 °F - 41.5 °F 74% 29.70 in 10.0 mi ESE 9.2 mph - N/A Rain Rain
4:13 AM 49.1 °F - 41.9 °F 76% 29.69 in 10.0 mi SE 10.4 mph - N/A Rain Light Rain
4:33 AM 48.6 °F - 42.1 °F 78% 29.68 in 10.0 mi ESE 12.7 mph - 0.02 in Rain Light Rain
4:53 AM 47.7 °F - 43.0 °F 84% 29.69 in 10.0 mi North 11.5 mph - 0.02 in Rain Light Rain
5:12 AM 47.3 °F - 43.0 °F 85% 29.68 in 10.0 mi NNE 13.8 mph - N/A Thunderstorm Overcast
5:32 AM 46.6 °F - 42.8 °F 87% 29.69 in 10.0 mi NE 10.4 mph - N/A   Overcast
5:53 AM 45.7 °F 42.0 °F 41.7 °F 86% 29.69 in 10.0 mi NE 6.9 mph - N/A   Scattered Clouds
6:13 AM 44.6 °F 40.7 °F 41.2 °F 88% 29.69 in 10.0 mi ENE 6.9 mph - N/A   Clear
6:33 AM 44.6 °F 39.7 °F 41.0 °F 87% 29.67 in 10.0 mi East 9.2 mph - N/A   Clear
6:52 AM 43.7 °F 39.1 °F 40.5 °F 88% 29.67 in 10.0 mi East 8.1 mph - N/A   Clear
7:12 AM 43.2 °F 39.0 °F 40.5 °F 90% 29.67 in 10.0 mi ENE 6.9 mph - N/A   Clear
7:33 AM 43.9 °F 39.3 °F 41.0 °F 90% 29.67 in 10.0 mi East 8.1 mph - N/A Thunderstorm Clear
7:53 AM 44.1 °F 40.1 °F 41.2 °F 90% 29.67 in 10.0 mi East 6.9 mph - N/A   Clear
8:12 AM 44.8 °F 41.0 °F 41.9 °F 90% 29.67 in 10.0 mi East 6.9 mph - N/A   Clear
8:32 AM 45.5 °F 41.8 °F 42.6 °F 90% 29.68 in 10.0 mi ENE 6.9 mph - N/A   Clear
8:53 AM 47.3 °F - 43.3 °F 86% 29.67 in 10.0 mi East 10.4 mph - N/A   Clear
9:12 AM 48.4 °F - 44.4 °F 86% 29.67 in 10.0 mi ENE 11.5 mph - N/A   Clear
9:32 AM 49.3 °F - 44.6 °F 84% 29.67 in 10.0 mi ENE 11.5 mph - N/A   Clear
9:52 AM 50.9 °F - 44.8 °F 80% 29.67 in 10.0 mi East 13.8 mph - N/A   Clear
10:12 AM 51.8 °F - 45.1 °F 78% 29.66 in 10.0 mi East 11.5 mph - N/A   Clear
10:32 AM 52.2 °F - 45.5 °F 78% 29.67 in 10.0 mi East 10.4 mph - N/A   Clear
10:53 AM 54.1 °F - 46.2 °F 75% 29.67 in 10.0 mi East 11.5 mph - N/A   Clear
11:12 AM 55.6 °F - 46.8 °F 72% 29.67 in 10.0 mi East 9.2 mph - N/A   Clear
11:33 AM 57.0 °F - 47.3 °F 70% 29.67 in 10.0 mi ENE 11.5 mph - N/A   Clear
11:52 AM 57.6 °F - 46.8 °F 67% 29.67 in 10.0 mi East 8.1 mph - N/A   Clear
12:13 PM 58.3 °F - 46.6 °F 65% 29.68 in 10.0 mi Calm Calm - N/A   Clear
12:32 PM 58.8 °F - 46.9 °F 65% 29.69 in 10.0 mi Calm Calm - N/A   Clear
12:52 PM 61.0 °F - 46.6 °F 59% 29.68 in 10.0 mi Calm Calm - N/A   Clear
1:13 PM 61.0 °F - 45.5 °F 57% 29.67 in 10.0 mi Calm Calm - N/A   Clear
1:33 PM 61.9 °F - 45.7 °F 55% 29.66 in 10.0 mi ENE 6.9 mph - N/A   Clear
1:52 PM 63.5 °F - 45.7 °F 52% 29.66 in 10.0 mi NE 11.5 mph - N/A   Clear
2:12 PM 63.5 °F - 46.4 °F 54% 29.66 in 10.0 mi ENE 11.5 mph - N/A   Clear
2:32 PM 63.5 °F - 46.4 °F 54% 29.66 in 10.0 mi East 5.8 mph - N/A Thunderstorm Clear
2:52 PM 64.2 °F - 46.6 °F 53% 29.67 in 10.0 mi ENE 3.5 mph - N/A   Clear
3:12 PM 65.1 °F - 46.8 °F 51% 29.66 in 10.0 mi NE 6.9 mph 16.1 mph N/A   Clear
3:32 PM 65.5 °F - 46.6 °F 50% 29.66 in 10.0 mi ENE 12.7 mph - N/A   Clear
3:52 PM 64.8 °F - 47.3 °F 53% 29.66 in 10.0 mi ENE 8.1 mph 16.1 mph N/A Thunderstorm Clear
4:12 PM 64.9 °F - 46.9 °F 52% 29.65 in 10.0 mi NE 11.5 mph - N/A   Clear
4:32 PM 65.1 °F - 46.9 °F 52% 29.65 in 10.0 mi NNE 10.4 mph 18.4 mph N/A   Clear
4:53 PM 64.8 °F - 47.3 °F 53% 29.65 in 10.0 mi NNE 12.7 mph 18.4 mph N/A   Clear
5:13 PM 64.6 °F - 47.8 °F 55% 29.65 in 10.0 mi NE 11.5 mph 17.3 mph N/A   Clear
5:33 PM 64.2 °F - 48.4 °F 56% 29.66 in 10.0 mi ENE 9.2 mph - N/A   Clear
5:53 PM 64.4 °F - 48.2 °F 56% 29.66 in 10.0 mi NE 11.5 mph - N/A   Clear
6:13 PM 64.2 °F - 48.2 °F 56% 29.67 in 10.0 mi Calm Calm - N/A   Clear
6:33 PM 62.4 °F - 48.4 °F 60% 29.68 in 10.0 mi NE 10.4 mph - N/A   Clear
6:52 PM 61.5 °F - 48.2 °F 62% 29.69 in 10.0 mi NNE 11.5 mph - N/A   Clear
7:13 PM 60.4 °F - 48.4 °F 64% 29.68 in 10.0 mi NE 12.7 mph - N/A   Clear
7:33 PM 59.2 °F - 48.4 °F 67% 29.69 in 10.0 mi NE 9.2 mph - N/A   Clear
7:52 PM 58.1 °F - 48.2 °F 70% 29.70 in 10.0 mi NE 9.2 mph - N/A   Clear
8:13 PM 56.7 °F - 47.8 °F 72% 29.71 in 10.0 mi NNE 9.2 mph - N/A   Clear
8:32 PM 55.4 °F - 47.3 °F 74% 29.71 in 10.0 mi NE 8.1 mph - N/A   Clear
8:52 PM 54.1 °F - 47.1 °F 77% 29.72 in 10.0 mi NNE 6.9 mph - N/A   Scattered Clouds
9:12 PM 53.6 °F - 46.8 °F 78% 29.71 in 10.0 mi NE 8.1 mph - N/A   Scattered Clouds
9:33 PM 52.2 °F - 46.4 °F 81% 29.71 in 10.0 mi NE 5.8 mph - N/A   Clear
9:52 PM 50.0 °F - 45.9 °F 86% 29.70 in 10.0 mi NNE 9.2 mph - N/A   Clear
10:13 PM 50.4 °F - 45.7 °F 84% 29.71 in 10.0 mi NNE 9.2 mph - N/A   Clear
10:33 PM 49.1 °F - 45.0 °F 86% 29.72 in 10.0 mi ENE 6.9 mph - N/A   Clear
10:53 PM 48.2 °F - 45.0 °F 89% 29.72 in 7.0 mi Calm Calm - N/A   Clear
11:12 PM 47.7 °F - 44.6 °F 89% 29.71 in 7.0 mi ENE 6.9 mph - N/A   Clear
11:32 PM 46.6 °F - 43.5 °F 89% 29.71 in 10.0 mi Calm Calm - N/A   Clear
11:53 PM 45.9 °F - 43.0 °F 90% 29.73 in 10.0 mi Calm Calm - N/A   Clear